Time,TemperatureF,DewpointF,PressureIn,WindDirection,WindDirectionDegrees,WindSpeedMPH,WindSpeedGustMPH,Humidity,HourlyPrecipIn,Conditions,Clouds,dailyrainin,SolarRadiationWatts/m^2,SoftwareType,DateUTC
2013-04-29 00:01:00,57.7,52.6,29.83,WSW,242,3.5,3.5,83,0.00,SCT,,0.00,0.0,WeatherDisplay:10.37,2013-04-29 05:01:00,
2013-04-29 00:06:00,57.7,52.9,29.83,WSW,243,3.5,3.5,84,0.00,SCT,,0.00,0.0,WeatherDisplay:10.37,2013-04-29 05:06:00,
2013-04-29 00:11:00,57.7,52.9,29.83,WSW,243,4.6,4.6,84,0.00,SCT,,0.00,0.0,WeatherDisplay:10.37,2013-04-29 05:11:00,
2013-04-29 00:16:00,57.7,52.9,29.83,WSW,243,5.8,5.8,84,0.00,SCT,,0.00,0.0,WeatherDisplay:10.37,2013-04-29 05:16:00,
2013-04-29 00:21:00,57.7,53.2,29.83,WSW,243,5.8,5.8,85,0.00,SCT,,0.00,0.0,WeatherDisplay:10.37,2013-04-29 05:21:00,
2013-04-29 00:26:00,57.6,52.8,29.84,WSW,241,1.2,0.0,84,0.00,SCT,,0.00,0.0,WeatherDisplay:10.37,2013-04-29 05:26:00,
2013-04-29 00:31:00,57.5,52.7,29.84,WSW,241,5.0,5.0,84,0.00,SCT,,0.00,0.0,WeatherDisplay:10.37,2013-04-29 05:31:00,
2013-04-29 00:36:00,57.5,53.0,29.84,WSW,240,0.0,0.1,85,0.00,SCT,,0.00,0.0,WeatherDisplay:10.37,2013-04-29 05:36:00,
2013-04-29 00:41:00,57.3,52.8,29.84,WSW,240,2.3,0.0,85,0.00,SCT,,0.00,0.0,WeatherDisplay:10.37,2013-04-29 05:41:00,
2013-04-29 00:46:00,57.2,52.7,29.84,WSW,240,0.0,0.0,85,0.00,SCT,,0.00,0.0,WeatherDisplay:10.37,2013-04-29 05:46:00,
2013-04-29 00:51:00,57.1,52.6,29.84,WSW,240,0.0,0.0,85,0.00,SCT,,0.00,0.0,WeatherDisplay:10.37,2013-04-29 05:51:00,
2013-04-29 00:56:00,56.9,52.4,29.84,WSW,240,1.2,0.0,85,0.00,SCT,,0.00,0.0,WeatherDisplay:10.37,2013-04-29 05:56:00,
2013-04-29 01:01:00,56.8,52.3,29.85,WSW,240,0.0,0.0,85,0.00,SCT,,0.00,0.0,WeatherDisplay:10.37,2013-04-29 06:01:00,
2013-04-29 01:06:00,56.6,52.5,29.84,WSW,240,5.8,5.8,86,0.00,SCT,,0.00,0.0,WeatherDisplay:10.37,2013-04-29 06:06:00,
2013-04-29 01:11:00,56.4,52.3,29.84,WSW,240,4.6,4.6,86,0.00,SCT,,0.00,0.0,WeatherDisplay:10.37,2013-04-29 06:11:00,
2013-04-29 01:16:00,56.2,52.1,29.84,WSW,240,3.5,3.5,86,0.00,SCT,,0.00,0.0,WeatherDisplay:10.37,2013-04-29 06:16:00,
2013-04-29 01:21:00,56.0,52.2,29.84,WSW,240,4.0,4.0,87,0.00,SCT,,0.00,0.0,WeatherDisplay:10.37,2013-04-29 06:21:00,
2013-04-29 01:26:00,55.9,52.1,29.84,WSW,239,0.0,0.0,87,0.00,SCT,,0.00,0.0,WeatherDisplay:10.37,2013-04-29 06:26:00,
2013-04-29 01:31:00,55.8,52.0,29.84,WSW,239,5.8,5.8,87,0.00,SCT,,0.00,0.0,WeatherDisplay:10.37,2013-04-29 06:31:00,
2013-04-29 01:36:00,55.7,52.2,29.84,WSW,238,4.6,4.6,88,0.00,SCT,,0.00,0.0,WeatherDisplay:10.37,2013-04-29 06:36:00,
2013-04-29 01:41:00,55.6,52.1,29.84,WSW,239,0.0,0.0,88,0.00,SCT,,0.00,0.0,WeatherDisplay:10.37,2013-04-29 06:41:00,
2013-04-29 01:46:00,55.5,52.0,29.84,WSW,238,0.0,0.0,88,0.00,SCT,,0.00,0.0,WeatherDisplay:10.37,2013-04-29 06:46:00,
2013-04-29 01:51:00,55.4,51.9,29.84,WSW,238,0.0,0.0,88,0.00,SCT,,0.00,0.0,WeatherDisplay:10.37,2013-04-29 06:51:00,
2013-04-29 01:56:00,55.2,51.7,29.84,WSW,238,0.0,0.0,88,0.00,SCT,,0.00,0.0,WeatherDisplay:10.37,2013-04-29 06:56:00,
2013-04-29 02:01:00,55.1,51.6,29.84,WSW,240,0.0,0.0,88,0.00,SCT,,0.00,0.0,WeatherDisplay:10.37,2013-04-29 07:01:00,
2013-04-29 02:06:00,54.9,51.4,29.84,WSW,240,0.0,0.0,88,0.00,SCT,,0.00,0.0,WeatherDisplay:10.37,2013-04-29 07:06:00,
2013-04-29 02:11:00,54.8,51.3,29.84,WSW,240,0.0,0.1,88,0.00,SCT,,0.00,0.0,WeatherDisplay:10.37,2013-04-29 07:11:00,
2013-04-29 02:16:00,54.7,51.5,29.84,WSW,239,0.0,0.0,89,0.00,SCT,,0.00,0.0,WeatherDisplay:10.37,2013-04-29 07:16:00,
2013-04-29 02:21:00,54.6,51.4,29.84,WSW,239,3.5,3.5,89,0.00,SCT,,0.00,0.0,WeatherDisplay:10.37,2013-04-29 07:21:00,
2013-04-29 02:26:00,54.6,51.4,29.84,WSW,239,0.0,0.0,89,0.00,SCT,,0.00,0.0,WeatherDisplay:10.37,2013-04-29 07:26:00,
2013-04-29 02:31:00,54.4,51.2,29.84,WSW,239,0.0,0.0,89,0.00,SCT,,0.00,0.0,WeatherDisplay:10.37,2013-04-29 07:31:00,
2013-04-29 02:36:00,54.3,51.1,29.84,WSW,238,0.0,0.0,89,0.00,SCT,,0.00,0.0,WeatherDisplay:10.37,2013-04-29 07:36:00,
2013-04-29 02:41:00,54.2,51.0,29.84,WSW,238,0.0,0.0,89,0.00,SCT,,0.00,0.0,WeatherDisplay:10.37,2013-04-29 07:41:00,
2013-04-29 02:47:00,54.1,50.9,29.84,WSW,239,0.0,0.0,89,0.00,SCT,,0.00,0.0,WeatherDisplay:10.37,2013-04-29 07:47:00,
2013-04-29 02:52:00,53.9,50.7,29.84,WSW,240,0.0,0.0,89,0.00,SCT,,0.00,0.0,WeatherDisplay:10.37,2013-04-29 07:52:00,
2013-04-29 02:57:00,53.9,50.7,29.84,WSW,238,0.0,0.0,89,0.00,SCT,,0.00,0.0,WeatherDisplay:10.37,2013-04-29 07:57:00,
2013-04-29 03:02:00,53.8,50.6,29.83,WSW,240,0.0,0.0,89,0.00,SCT,,0.00,0.0,WeatherDisplay:10.37,2013-04-29 08:02:00,
2013-04-29 03:07:00,53.6,50.7,29.83,WSW,239,0.0,0.0,90,0.00,SCT,,0.00,0.0,WeatherDisplay:10.37,2013-04-29 08:07:00,
2013-04-29 03:12:00,53.5,50.6,29.83,WSW,240,0.0,0.0,90,0.00,SCT,,0.00,0.0,WeatherDisplay:10.37,2013-04-29 08:12:00,
2013-04-29 03:17:00,53.4,50.5,29.83,WSW,240,0.0,0.0,90,0.00,SCT,,0.00,0.0,WeatherDisplay:10.37,2013-04-29 08:17:00,
2013-04-29 03:22:00,53.3,50.4,29.83,WSW,240,0.0,0.0,90,0.00,SCT,,0.00,0.0,WeatherDisplay:10.37,2013-04-29 08:22:00,
2013-04-29 03:27:00,53.2,50.3,29.83,WSW,239,0.0,0.0,90,0.00,SCT,,0.00,0.0,WeatherDisplay:10.37,2013-04-29 08:27:00,
2013-04-29 03:32:00,53.1,50.2,29.83,WSW,239,0.0,0.0,90,0.00,SCT,,0.00,0.0,WeatherDisplay:10.37,2013-04-29 08:32:00,
2013-04-29 03:37:00,53.1,50.5,29.83,WSW,240,0.0,0.0,91,0.00,SCT,,0.00,0.0,WeatherDisplay:10.37,2013-04-29 08:37:00,
2013-04-29 03:42:00,53.0,50.4,29.83,WSW,239,0.0,0.0,91,0.00,SCT,,0.00,0.0,WeatherDisplay:10.37,2013-04-29 08:42:00,
2013-04-29 03:47:00,53.0,50.4,29.83,WSW,240,3.5,3.5,91,0.00,SCT,,0.00,0.0,WeatherDisplay:10.37,2013-04-29 08:47:00,
2013-04-29 03:52:00,52.9,50.3,29.84,WSW,239,0.0,0.0,91,0.00,SCT,,0.00,0.0,WeatherDisplay:10.37,2013-04-29 08:52:00,
2013-04-29 03:57:00,52.8,50.2,29.84,WSW,239,0.0,0.0,91,0.00,SCT,,0.00,0.0,WeatherDisplay:10.37,2013-04-29 08:57:00,
2013-04-29 04:02:00,52.8,50.2,29.84,WSW,240,0.0,0.0,91,0.00,SCT,,0.00,0.0,WeatherDisplay:10.37,2013-04-29 09:02:00,
2013-04-29 04:07:00,52.7,50.1,29.84,WSW,240,0.0,0.0,91,0.00,SCT,,0.00,0.0,WeatherDisplay:10.37,2013-04-29 09:07:00,
2013-04-29 04:12:00,52.7,50.1,29.84,WSW,238,0.0,0.0,91,0.00,SCT,,0.00,0.0,WeatherDisplay:10.37,2013-04-29 09:12:00,
2013-04-29 04:17:00,52.6,50.0,29.84,WSW,238,0.0,0.0,91,0.00,SCT,,0.00,0.0,WeatherDisplay:10.37,2013-04-29 09:17:00,
2013-04-29 04:22:00,52.5,49.9,29.84,WSW,239,0.0,0.0,91,0.00,SCT,,0.00,0.0,WeatherDisplay:10.37,2013-04-29 09:22:00,
2013-04-29 04:27:00,52.5,49.9,29.84,WSW,240,4.6,4.6,91,0.00,SCT,,0.00,0.0,WeatherDisplay:10.37,2013-04-29 09:27:00,
2013-04-29 04:32:00,52.4,49.8,29.84,WSW,239,4.6,4.6,91,0.00,SCT,,0.00,0.0,WeatherDisplay:10.37,2013-04-29 09:32:00,
2013-04-29 04:37:00,52.3,49.8,29.84,WSW,238,0.0,0.0,91,0.00,SCT,,0.00,0.0,WeatherDisplay:10.37,2013-04-29 09:37:00,
2013-04-29 04:42:00,52.2,49.7,29.84,WSW,238,0.0,0.0,91,0.00,SCT,,0.00,0.0,WeatherDisplay:10.37,2013-04-29 09:42:00,
2013-04-29 04:47:00,52.1,49.6,29.84,WSW,239,5.8,5.8,91,0.00,SCT,,0.00,0.0,WeatherDisplay:10.37,2013-04-29 09:47:00,
2013-04-29 04:52:00,52.1,49.8,29.84,WSW,239,4.6,4.6,92,0.00,SCT,,0.00,0.0,WeatherDisplay:10.37,2013-04-29 09:52:00,
2013-04-29 04:57:00,52.1,49.8,29.85,WSW,239,0.0,0.0,92,0.00,SCT,,0.00,0.0,WeatherDisplay:10.37,2013-04-29 09:57:00,
2013-04-29 05:02:00,51.9,49.4,29.85,WSW,239,0.0,0.0,91,0.00,SCT,,0.00,0.0,WeatherDisplay:10.37,2013-04-29 10:02:00,
2013-04-29 05:07:00,51.8,49.3,29.85,WSW,239,0.0,0.0,91,0.00,SCT,,0.00,0.0,WeatherDisplay:10.37,2013-04-29 10:07:00,
2013-04-29 05:12:00,51.7,49.2,29.85,WSW,238,0.0,0.0,91,0.00,SCT,,0.00,0.0,WeatherDisplay:10.37,2013-04-29 10:12:00,
2013-04-29 05:17:00,51.6,49.1,29.85,WSW,239,0.0,0.0,91,0.00,SCT,,0.00,0.0,WeatherDisplay:10.37,2013-04-29 10:17:00,
2013-04-29 05:22:00,51.5,49.0,29.85,WSW,239,0.0,0.0,91,0.00,SCT,,0.00,0.0,WeatherDisplay:10.37,2013-04-29 10:22:00,
2013-04-29 05:27:00,51.4,48.9,29.85,WSW,239,0.0,0.0,91,0.00,SCT,,0.00,0.0,WeatherDisplay:10.37,2013-04-29 10:27:00,
2013-04-29 05:32:00,51.3,48.8,29.85,WSW,239,0.0,0.0,91,0.00,SCT,,0.00,0.0,WeatherDisplay:10.37,2013-04-29 10:32:00,
2013-04-29 05:37:00,51.2,48.7,29.85,WSW,239,0.0,0.0,91,0.00,SCT,,0.00,0.0,WeatherDisplay:10.37,2013-04-29 10:37:00,
2013-04-29 05:42:00,51.1,48.6,29.86,WSW,238,0.0,0.0,91,0.00,SCT,,0.00,0.0,WeatherDisplay:10.37,2013-04-29 10:42:00,
2013-04-29 05:47:00,51.1,48.9,29.86,WSW,239,0.0,0.0,92,0.00,SCT,,0.00,0.0,WeatherDisplay:10.37,2013-04-29 10:47:00,
2013-04-29 05:52:00,51.0,48.8,29.86,WSW,239,2.3,0.0,92,0.00,SCT,,0.00,0.0,WeatherDisplay:10.37,2013-04-29 10:52:00,
2013-04-29 05:57:00,50.9,48.7,29.86,WSW,238,2.3,0.0,92,0.00,SCT,,0.00,0.0,WeatherDisplay:10.37,2013-04-29 10:57:00,
2013-04-29 06:02:00,50.8,48.6,29.86,WSW,239,0.0,0.0,92,0.00,OVC,,0.00,0.0,WeatherDisplay:10.37,2013-04-29 11:02:00,
2013-04-29 06:07:00,50.8,48.6,29.86,WSW,238,3.5,0.0,92,0.00,BKN,,0.00,7.0,WeatherDisplay:10.37,2013-04-29 11:07:00,
2013-04-29 06:12:00,50.8,48.6,29.86,WSW,239,0.0,0.0,92,0.00,BKN,,0.00,16.0,WeatherDisplay:10.37,2013-04-29 11:12:00,
2013-04-29 06:17:00,50.8,48.6,29.86,WSW,239,0.0,0.0,92,0.00,BKN,,0.00,26.0,WeatherDisplay:10.37,2013-04-29 11:17:00,
2013-04-29 06:22:00,50.7,48.5,29.86,WSW,238,0.0,0.0,92,0.00,BKN,,0.00,39.0,WeatherDisplay:10.37,2013-04-29 11:22:00,
2013-04-29 06:27:00,50.6,48.4,29.86,WSW,239,0.0,0.0,92,0.00,BKN,,0.00,44.0,WeatherDisplay:10.37,2013-04-29 11:27:00,
2013-04-29 06:32:00,50.6,48.4,29.86,WSW,238,0.0,0.0,92,0.00,BKN,,0.00,49.0,WeatherDisplay:10.37,2013-04-29 11:32:00,
2013-04-29 06:37:00,50.6,48.7,29.86,WSW,238,0.0,0.0,93,0.00,BKN,,0.00,62.0,WeatherDisplay:10.37,2013-04-29 11:37:00,
2013-04-29 06:43:00,50.8,48.8,29.86,WSW,239,0.0,0.0,93,0.00,BKN,,0.00,72.0,WeatherDisplay:10.37,2013-04-29 11:43:00,
2013-04-29 06:48:00,50.9,48.9,29.86,WSW,239,0.0,0.0,93,0.00,BKN,,0.00,86.0,WeatherDisplay:10.37,2013-04-29 11:48:00,
2013-04-29 06:53:00,51.0,49.0,29.85,WSW,239,0.0,0.0,93,0.00,SCT,,0.00,105.0,WeatherDisplay:10.37,2013-04-29 11:53:00,
2013-04-29 06:58:00,51.2,49.2,29.85,WSW,239,3.5,3.5,93,0.00,SCT,,0.00,107.0,WeatherDisplay:10.37,2013-04-29 11:58:00,
2013-04-29 07:03:00,51.5,49.5,29.85,WSW,239,3.5,3.5,93,0.00,SCT,,0.00,102.0,WeatherDisplay:10.37,2013-04-29 12:03:00,
2013-04-29 07:08:00,51.8,49.8,29.85,WSW,238,3.5,3.5,93,0.00,BKN,,0.00,105.0,WeatherDisplay:10.37,2013-04-29 12:08:00,
2013-04-29 07:13:00,51.9,49.9,29.85,WSW,239,0.0,0.0,93,0.00,BKN,,0.00,88.0,WeatherDisplay:10.37,2013-04-29 12:13:00,
2013-04-29 07:18:00,52.0,50.0,29.85,WSW,238,0.0,0.0,93,0.00,BKN,,0.00,128.0,WeatherDisplay:10.37,2013-04-29 12:18:00,
2013-04-29 07:23:00,52.1,50.1,29.85,WSW,238,0.0,0.0,93,0.00,BKN,,0.00,134.0,WeatherDisplay:10.37,2013-04-29 12:23:00,
2013-04-29 07:28:00,52.3,50.3,29.85,SSW,200,0.0,0.0,93,0.00,SCT,,0.00,223.0,WeatherDisplay:10.37,2013-04-29 12:28:00,
2013-04-29 07:33:00,52.5,50.5,29.85,SSW,200,0.0,0.0,93,0.00,SCT,,0.00,174.0,WeatherDisplay:10.37,2013-04-29 12:33:00,
2013-04-29 07:38:00,52.8,50.8,29.85,SSW,200,0.0,0.0,93,0.00,SCT,,0.00,174.0,WeatherDisplay:10.37,2013-04-29 12:38:00,
2013-04-29 07:43:00,53.1,51.1,29.85,SSW,200,0.0,0.0,93,0.00,SCT,,0.00,223.0,WeatherDisplay:10.37,2013-04-29 12:43:00,
2013-04-29 07:48:00,53.4,51.1,29.85,SSW,200,0.0,0.0,92,0.00,SCT,,0.00,288.0,WeatherDisplay:10.37,2013-04-29 12:48:00,
2013-04-29 07:53:00,53.6,51.3,29.85,SSW,199,0.0,0.0,92,0.00,SCT,,0.00,287.0,WeatherDisplay:10.37,2013-04-29 12:53:00,
2013-04-29 07:58:00,54.1,51.8,29.85,SSW,199,3.5,3.5,92,0.00,SCT,,0.00,316.0,WeatherDisplay:10.37,2013-04-29 12:58:00,
2013-04-29 08:03:00,54.5,51.9,29.85,SSW,200,3.5,3.5,91,0.00,SCT,,0.00,330.0,WeatherDisplay:10.37,2013-04-29 13:03:00,
2013-04-29 08:08:00,54.9,52.3,29.86,SSW,200,0.0,0.0,91,0.00,SCT,,0.00,360.0,WeatherDisplay:10.37,2013-04-29 13:08:00,
2013-04-29 08:13:00,55.4,52.5,29.86,SSW,192,4.6,4.6,90,0.00,FEW,,0.00,360.0,WeatherDisplay:10.37,2013-04-29 13:13:00,
2013-04-29 08:18:00,55.8,52.6,29.85,South,178,4.6,4.6,89,0.00,FEW,,0.00,394.0,WeatherDisplay:10.37,2013-04-29 13:18:00,
2013-04-29 08:23:00,56.3,53.1,29.85,SSE,164,5.8,5.8,89,0.00,FEW,,0.00,422.0,WeatherDisplay:10.37,2013-04-29 13:23:00,
2013-04-29 08:28:00,56.8,53.3,29.85,SSE,164,3.5,3.5,88,0.00,FEW,,0.00,443.0,WeatherDisplay:10.37,2013-04-29 13:28:00,
2013-04-29 08:33:00,57.3,53.5,29.85,SSE,162,0.0,0.0,87,0.00,FEW,,0.00,436.0,WeatherDisplay:10.37,2013-04-29 13:33:00,
2013-04-29 08:38:00,57.8,53.6,29.85,SSE,152,3.5,3.5,86,0.00,FEW,,0.00,457.0,WeatherDisplay:10.37,2013-04-29 13:38:00,
2013-04-29 08:43:00,58.4,53.9,29.85,SSE,156,5.8,5.8,85,0.00,SCT,,0.00,415.0,WeatherDisplay:10.37,2013-04-29 13:43:00,
2013-04-29 08:48:00,59.0,54.5,29.84,SSE,157,6.9,6.9,85,0.00,FEW,,0.00,422.0,WeatherDisplay:10.37,2013-04-29 13:48:00,
2013-04-29 08:53:00,59.3,54.1,29.84,SSE,161,3.5,3.5,83,0.00,FEW,,0.00,512.0,WeatherDisplay:10.37,2013-04-29 13:53:00,
2013-04-29 08:58:00,59.8,54.3,29.84,SSE,149,10.4,10.4,82,0.00,SCT,,0.00,411.0,WeatherDisplay:10.37,2013-04-29 13:58:00,
2013-04-29 09:03:00,60.2,54.7,29.84,SSE,150,9.2,9.2,82,0.00,SCT,,0.00,415.0,WeatherDisplay:10.37,2013-04-29 14:03:00,
2013-04-29 09:08:00,60.6,54.7,29.83,SSE,161,5.8,5.8,81,0.00,SCT,,0.00,425.0,WeatherDisplay:10.37,2013-04-29 14:08:00,
2013-04-29 09:13:00,61.0,55.1,29.83,SSE,155,12.0,12.0,81,0.00,SCT,,0.00,550.0,WeatherDisplay:10.37,2013-04-29 14:13:00,
2013-04-29 09:18:00,61.4,54.8,29.83,SSE,153,12.7,12.7,79,0.00,FEW,,0.00,487.0,WeatherDisplay:10.37,2013-04-29 14:18:00,
2013-04-29 09:23:00,61.8,55.2,29.83,South,180,4.6,4.6,79,0.00,FEW,,0.00,608.0,WeatherDisplay:10.37,2013-04-29 14:23:00,
2013-04-29 09:28:00,62.2,55.3,29.82,SE,146,11.5,11.5,78,0.00,FEW,,0.00,584.0,WeatherDisplay:10.37,2013-04-29 14:28:00,
2013-04-29 09:33:00,62.5,55.2,29.83,SE,144,15.0,15.0,77,0.00,FEW,,0.00,613.0,WeatherDisplay:10.37,2013-04-29 14:33:00,
2013-04-29 09:38:00,62.9,55.2,29.83,SSE,161,10.4,10.4,76,0.00,FEW,,0.00,557.0,WeatherDisplay:10.37,2013-04-29 14:38:00,
2013-04-29 09:43:00,63.2,55.5,29.82,SSE,153,10.4,10.4,76,0.00,SCT,,0.00,568.0,WeatherDisplay:10.37,2013-04-29 14:43:00,
2013-04-29 09:48:00,63.5,55.4,29.82,SSE,167,12.7,12.7,75,0.00,SCT,,0.00,561.0,WeatherDisplay:10.37,2013-04-29 14:48:00,
2013-04-29 09:53:00,63.9,55.8,29.82,SSE,158,10.4,10.4,75,0.00,SCT,,0.00,621.0,WeatherDisplay:10.37,2013-04-29 14:53:00,
2013-04-29 09:58:00,64.4,55.6,29.82,SSE,154,12.7,12.7,73,0.00,SCT,,0.00,622.0,WeatherDisplay:10.37,2013-04-29 14:58:00,
2013-04-29 10:03:00,64.8,55.6,29.81,SSE,157,13.8,13.8,72,0.00,FEW,,0.00,682.0,WeatherDisplay:10.37,2013-04-29 15:03:00,
2013-04-29 10:08:00,65.4,56.1,29.81,SSE,152,9.2,9.2,72,0.00,FEW,,0.00,768.0,WeatherDisplay:10.37,2013-04-29 15:08:00,
2013-04-29 10:13:00,66.1,56.4,29.81,South,184,12.0,12.0,71,0.00,CLR,,0.00,765.0,WeatherDisplay:10.37,2013-04-29 15:13:00,
2013-04-29 10:18:00,66.7,56.6,29.80,SSE,157,11.5,11.5,70,0.00,CLR,,0.00,765.0,WeatherDisplay:10.37,2013-04-29 15:18:00,
2013-04-29 10:23:00,67.2,56.7,29.81,South,179,11.5,11.5,69,0.00,FEW,,0.00,751.0,WeatherDisplay:10.37,2013-04-29 15:23:00,
2013-04-29 10:28:00,67.5,56.2,29.80,SE,132,11.5,11.5,67,0.00,FEW,,0.00,831.0,WeatherDisplay:10.37,2013-04-29 15:28:00,
2013-04-29 10:33:00,67.9,56.5,29.80,SSE,154,11.5,11.5,67,0.00,FEW,,0.00,413.0,WeatherDisplay:10.37,2013-04-29 15:33:00,
2013-04-29 10:38:00,68.1,56.7,29.80,SSE,165,10.4,10.4,67,0.00,SCT,,0.00,438.0,WeatherDisplay:10.37,2013-04-29 15:38:00,
2013-04-29 10:43:00,68.3,56.1,29.79,ESE,122,12.7,12.7,65,0.00,SCT,,0.00,747.0,WeatherDisplay:10.37,2013-04-29 15:43:00,
2013-04-29 10:48:00,68.7,56.5,29.79,SE,142,10.4,10.4,65,0.00,SCT,,0.00,784.0,WeatherDisplay:10.37,2013-04-29 15:48:00,
2013-04-29 10:53:00,69.1,56.4,29.79,SE,140,15.0,15.0,64,0.00,SCT,,0.00,462.0,WeatherDisplay:10.37,2013-04-29 15:53:00,
2013-04-29 10:58:00,69.2,56.1,29.79,SSE,148,17.3,17.3,63,0.00,SCT,,0.00,338.0,WeatherDisplay:10.37,2013-04-29 15:58:00,
2013-04-29 11:03:00,69.1,55.5,29.79,SE,137,17.3,17.3,62,0.00,BKN,,0.00,297.0,WeatherDisplay:10.37,2013-04-29 16:03:00,
2013-04-29 11:08:00,69.0,55.9,29.79,ESE,113,16.1,16.1,63,0.00,BKN,,0.00,367.0,WeatherDisplay:10.37,2013-04-29 16:08:00,
2013-04-29 11:13:00,69.2,56.1,29.79,SE,129,10.0,10.0,63,0.00,BKN,,0.00,392.0,WeatherDisplay:10.37,2013-04-29 16:13:00,
2013-04-29 11:18:00,69.4,56.3,29.79,SE,143,9.2,9.2,63,0.00,BKN,,0.00,309.0,WeatherDisplay:10.37,2013-04-29 16:18:00,
2013-04-29 11:23:00,69.6,56.4,29.79,SE,138,13.8,13.8,63,0.00,BKN,,0.00,364.0,WeatherDisplay:10.37,2013-04-29 16:23:00,
2013-04-29 11:28:00,69.8,56.2,29.79,SE,128,11.5,11.5,62,0.00,BKN,,0.00,566.0,WeatherDisplay:10.37,2013-04-29 16:28:00,
2013-04-29 11:33:00,70.3,57.1,29.78,SE,146,12.7,12.7,63,0.00,SCT,,0.00,814.0,WeatherDisplay:10.37,2013-04-29 16:33:00,
2013-04-29 11:38:00,70.9,57.2,29.78,SE,146,17.3,17.3,62,0.00,SCT,,0.00,571.0,WeatherDisplay:10.37,2013-04-29 16:38:00,
2013-04-29 11:43:00,71.2,56.6,29.78,ESE,116,10.4,10.4,60,0.00,SCT,,0.00,459.0,WeatherDisplay:10.37,2013-04-29 16:43:00,
2013-04-29 11:48:00,71.3,56.7,29.78,SE,142,18.4,18.4,60,0.00,BKN,,0.00,480.0,WeatherDisplay:10.37,2013-04-29 16:48:00,
2013-04-29 11:53:00,71.4,56.8,29.77,SE,143,9.2,9.2,60,0.00,BKN,,0.00,578.0,WeatherDisplay:10.37,2013-04-29 16:53:00,
2013-04-29 11:58:00,71.8,57.2,29.78,SE,129,18.4,18.4,60,0.00,SCT,,0.00,798.0,WeatherDisplay:10.37,2013-04-29 16:58:00,
2013-04-29 12:03:00,72.1,57.4,29.77,SSE,163,4.6,4.9,60,0.00,SCT,,0.00,765.0,WeatherDisplay:10.37,2013-04-29 17:03:00,
2013-04-29 12:08:00,72.7,57.5,29.77,South,169,11.5,11.5,59,0.00,FEW,,0.00,793.0,WeatherDisplay:10.37,2013-04-29 17:08:00,
2013-04-29 12:13:00,73.1,57.4,29.76,SSE,163,18.4,18.4,58,0.00,SCT,,0.00,643.0,WeatherDisplay:10.37,2013-04-29 17:13:00,
2013-04-29 12:18:00,73.4,57.7,29.76,SSE,159,17.3,17.3,58,0.00,SCT,,0.00,817.0,WeatherDisplay:10.37,2013-04-29 17:18:00,
2013-04-29 12:23:00,73.3,57.1,29.76,SE,146,20.0,20.0,57,0.00,SCT,,0.00,501.0,WeatherDisplay:10.37,2013-04-29 17:23:00,
2013-04-29 12:28:00,73.4,57.7,29.75,SE,142,12.0,12.0,58,0.00,SCT,,0.00,673.0,WeatherDisplay:10.37,2013-04-29 17:28:00,
2013-04-29 12:33:00,73.5,57.3,29.75,SSE,150,20.7,20.7,57,0.00,SCT,,0.00,446.0,WeatherDisplay:10.37,2013-04-29 17:33:00,
2013-04-29 12:38:00,73.5,57.8,29.74,South,169,14.0,14.0,58,0.00,SCT,,0.00,675.0,WeatherDisplay:10.37,2013-04-29 17:38:00,
2013-04-29 12:44:00,74.0,58.3,29.74,SE,134,10.4,10.4,58,0.00,SCT,,0.00,1042.0,WeatherDisplay:10.37,2013-04-29 17:44:00,
2013-04-29 12:49:00,74.6,57.9,29.74,SSE,156,24.2,24.2,56,0.00,CLR,,0.00,1025.0,WeatherDisplay:10.37,2013-04-29 17:49:00,
2013-04-29 12:54:00,74.8,58.5,29.74,SSE,155,13.8,13.8,57,0.00,CLR,,0.00,947.0,WeatherDisplay:10.37,2013-04-29 17:54:00,
2013-04-29 12:59:00,75.1,57.8,29.74,ESE,123,15.0,15.0,55,0.00,CLR,,0.00,1044.0,WeatherDisplay:10.37,2013-04-29 17:59:00,
2013-04-29 13:04:00,75.2,57.9,29.73,SE,140,26.5,26.5,55,0.00,CLR,,0.00,905.0,WeatherDisplay:10.37,2013-04-29 18:04:00,
2013-04-29 13:09:00,75.3,58.0,29.73,SE,126,19.6,19.6,55,0.00,CLR,,0.00,969.0,WeatherDisplay:10.37,2013-04-29 18:09:00,
2013-04-29 13:14:00,75.5,58.2,29.73,SE,137,15.0,15.0,55,0.00,CLR,,0.00,919.0,WeatherDisplay:10.37,2013-04-29 18:14:00,
2013-04-29 13:19:00,75.6,58.3,29.73,SSE,150,17.3,17.3,55,0.00,CLR,,0.00,951.0,WeatherDisplay:10.37,2013-04-29 18:19:00,
2013-04-29 13:24:00,76.1,58.8,29.72,SW,214,19.6,19.6,55,0.00,FEW,,0.00,856.0,WeatherDisplay:10.37,2013-04-29 18:24:00,
2013-04-29 13:29:00,76.4,59.0,29.72,SSE,163,18.4,18.4,55,0.00,FEW,,0.00,958.0,WeatherDisplay:10.37,2013-04-29 18:29:00,
2013-04-29 13:34:00,76.8,59.4,29.72,SSE,153,12.7,12.7,55,0.00,CLR,,0.00,953.0,WeatherDisplay:10.37,2013-04-29 18:34:00,
2013-04-29 13:39:00,77.2,59.3,29.72,South,186,15.0,15.0,54,0.00,CLR,,0.00,974.0,WeatherDisplay:10.37,2013-04-29 18:39:00,
2013-04-29 13:44:00,77.5,60.1,29.73,South,186,25.3,25.3,55,0.00,CLR,,0.00,981.0,WeatherDisplay:10.37,2013-04-29 18:44:00,
2013-04-29 13:49:00,77.5,59.5,29.72,SSE,165,17.3,17.3,54,0.00,CLR,,0.00,840.0,WeatherDisplay:10.37,2013-04-29 18:49:00,
2013-04-29 13:54:00,77.6,60.2,29.72,SSE,155,17.3,17.3,55,0.00,CLR,,0.00,928.0,WeatherDisplay:10.37,2013-04-29 18:54:00,
2013-04-29 13:59:00,77.6,60.2,29.73,SSE,159,13.8,13.8,55,0.00,FEW,,0.00,765.0,WeatherDisplay:10.37,2013-04-29 18:59:00,
2013-04-29 14:04:00,77.4,59.5,29.72,SE,140,20.7,20.7,54,0.00,FEW,,0.00,854.0,WeatherDisplay:10.37,2013-04-29 19:04:00,
2013-04-29 14:09:00,77.7,60.2,29.72,SSE,150,19.6,19.6,55,0.00,FEW,,0.00,763.0,WeatherDisplay:10.37,2013-04-29 19:09:00,
2013-04-29 14:14:00,77.5,60.1,29.72,South,182,17.3,17.3,55,0.00,FEW,,0.00,791.0,WeatherDisplay:10.37,2013-04-29 19:14:00,
2013-04-29 14:19:00,77.6,60.2,29.72,SSE,150,15.0,15.0,55,0.00,SCT,,0.00,777.0,WeatherDisplay:10.37,2013-04-29 19:19:00,
2013-04-29 14:24:00,78.0,60.5,29.72,South,180,11.5,11.5,55,0.00,SCT,,0.00,726.0,WeatherDisplay:10.37,2013-04-29 19:24:00,
2013-04-29 14:29:00,78.2,60.2,29.71,SE,138,19.6,19.6,54,0.00,FEW,,0.00,784.0,WeatherDisplay:10.37,2013-04-29 19:29:00,
2013-04-29 14:34:00,78.4,60.9,29.71,South,185,13.8,13.8,55,0.00,SCT,,0.00,696.0,WeatherDisplay:10.37,2013-04-29 19:34:00,
2013-04-29 14:39:00,78.4,60.9,29.71,SSE,147,10.4,10.4,55,0.00,SCT,,0.00,661.0,WeatherDisplay:10.37,2013-04-29 19:39:00,
2013-04-29 14:44:00,78.2,60.2,29.71,SSE,167,13.8,13.8,54,0.00,SCT,,0.00,622.0,WeatherDisplay:10.37,2013-04-29 19:44:00,
2013-04-29 14:49:00,78.2,60.2,29.71,SSE,151,18.4,18.4,54,0.00,SCT,,0.00,635.0,WeatherDisplay:10.37,2013-04-29 19:49:00,
2013-04-29 14:54:00,78.4,60.4,29.71,SSE,167,11.0,11.0,54,0.00,SCT,,0.00,599.0,WeatherDisplay:10.37,2013-04-29 19:54:00,
2013-04-29 14:59:00,78.4,60.9,29.70,South,178,16.0,16.0,55,0.00,SCT,,0.00,631.0,WeatherDisplay:10.37,2013-04-29 19:59:00,
2013-04-29 15:04:00,78.6,61.1,29.70,SE,142,13.8,13.8,55,0.00,SCT,,0.00,635.0,WeatherDisplay:10.37,2013-04-29 20:04:00,
2013-04-29 15:09:00,78.7,60.7,29.69,South,180,18.4,18.4,54,0.00,SCT,,0.00,534.0,WeatherDisplay:10.37,2013-04-29 20:09:00,
2013-04-29 15:14:00,78.7,60.1,29.69,SSE,167,15.0,15.0,53,0.00,SCT,,0.00,673.0,WeatherDisplay:10.37,2013-04-29 20:14:00,
2013-04-29 15:19:00,78.6,60.6,29.69,South,180,12.7,12.7,54,0.00,SCT,,0.00,663.0,WeatherDisplay:10.37,2013-04-29 20:19:00,
2013-04-29 15:24:00,78.8,62.3,29.68,SSE,158,11.5,11.5,57,0.00,SCT,,0.00,555.0,WeatherDisplay:10.37,2013-04-29 20:24:00,
2013-04-29 15:29:00,79.2,61.6,29.68,South,182,14.0,14.0,55,0.00,SCT,,0.00,629.0,WeatherDisplay:10.37,2013-04-29 20:29:00,
2013-04-29 15:34:00,79.5,61.9,29.67,SE,133,16.1,16.1,55,0.00,SCT,,0.00,701.0,WeatherDisplay:10.37,2013-04-29 20:34:00,
2013-04-29 15:39:00,79.6,61.0,29.67,SE,136,16.1,16.1,53,0.00,FEW,,0.00,689.0,WeatherDisplay:10.37,2013-04-29 20:39:00,
2013-04-29 15:44:00,79.6,61.5,29.66,ESE,114,20.7,20.7,54,0.00,FEW,,0.00,613.0,WeatherDisplay:10.37,2013-04-29 20:44:00,
2013-04-29 15:49:00,79.5,61.4,29.65,SSE,161,19.6,19.6,54,0.00,SCT,,0.00,552.0,WeatherDisplay:10.37,2013-04-29 20:49:00,
2013-04-29 15:54:00,79.4,61.3,29.65,South,178,17.3,17.3,54,0.00,SCT,,0.00,501.0,WeatherDisplay:10.37,2013-04-29 20:54:00,
2013-04-29 15:59:00,79.3,61.7,29.65,SSE,155,12.7,12.7,55,0.00,SCT,,0.00,232.0,WeatherDisplay:10.37,2013-04-29 20:59:00,
2013-04-29 16:04:00,78.9,60.8,29.65,SSE,163,17.3,17.3,54,0.00,BKN,,0.00,239.0,WeatherDisplay:10.37,2013-04-29 21:04:00,
2013-04-29 16:09:00,78.5,61.0,29.65,ESE,122,17.3,17.3,55,0.00,BKN,,0.00,279.0,WeatherDisplay:10.37,2013-04-29 21:09:00,
2013-04-29 16:14:00,78.3,61.3,29.65,SE,141,15.0,15.0,56,0.00,BKN,,0.00,301.0,WeatherDisplay:10.37,2013-04-29 21:14:00,
2013-04-29 16:19:00,78.4,61.4,29.65,South,169,19.6,19.6,56,0.00,BKN,,0.00,492.0,WeatherDisplay:10.37,2013-04-29 21:19:00,
2013-04-29 16:24:00,78.7,61.7,29.65,SSE,160,13.8,13.8,56,0.00,SCT,,0.00,599.0,WeatherDisplay:10.37,2013-04-29 21:24:00,
2013-04-29 16:29:00,79.3,61.7,29.65,SE,139,17.3,17.3,55,0.00,FEW,,0.00,612.0,WeatherDisplay:10.37,2013-04-29 21:29:00,
2013-04-29 16:34:00,79.6,62.0,29.65,SSE,160,20.7,20.7,55,0.00,FEW,,0.00,547.0,WeatherDisplay:10.37,2013-04-29 21:34:00,
2013-04-29 16:39:00,79.8,62.2,29.65,South,173,19.6,19.6,55,0.00,FEW,,0.00,513.0,WeatherDisplay:10.37,2013-04-29 21:39:00,
2013-04-29 16:44:00,80.2,63.1,29.65,SSE,160,17.3,17.3,56,0.00,SCT,,0.00,501.0,WeatherDisplay:10.37,2013-04-29 21:44:00,
2013-04-29 16:49:00,80.3,62.1,29.65,SE,139,16.1,16.1,54,0.00,SCT,,0.00,499.0,WeatherDisplay:10.37,2013-04-29 21:49:00,
2013-04-29 16:54:00,80.3,62.7,29.65,South,179,13.8,13.8,55,0.00,SCT,,0.00,496.0,WeatherDisplay:10.37,2013-04-29 21:54:00,
2013-04-29 16:59:00,80.4,62.2,29.65,South,182,21.9,21.9,54,0.00,SCT,,0.00,469.0,WeatherDisplay:10.37,2013-04-29 21:59:00,
2013-04-29 17:04:00,80.3,62.1,29.65,South,179,15.0,15.0,54,0.00,SCT,,0.00,380.0,WeatherDisplay:10.37,2013-04-29 22:04:00,
2013-04-29 17:09:00,80.2,61.5,29.65,South,172,17.3,17.3,53,0.00,SCT,,0.00,418.0,WeatherDisplay:10.37,2013-04-29 22:09:00,
2013-04-29 17:14:00,80.3,62.1,29.65,SE,130,15.0,15.0,54,0.00,SCT,,0.00,396.0,WeatherDisplay:10.37,2013-04-29 22:14:00,
2013-04-29 17:19:00,80.1,61.4,29.65,SSW,200,19.6,19.6,53,0.00,SCT,,0.00,320.0,WeatherDisplay:10.37,2013-04-29 22:19:00,
2013-04-29 17:24:00,79.8,61.7,29.65,South,172,19.6,19.6,54,0.00,SCT,,0.00,320.0,WeatherDisplay:10.37,2013-04-29 22:24:00,
2013-04-29 17:29:00,79.5,61.4,29.65,SSE,156,19.6,19.6,54,0.00,SCT,,0.00,332.0,WeatherDisplay:10.37,2013-04-29 22:29:00,
2013-04-29 17:34:00,79.4,61.3,29.65,SSW,202,21.9,21.9,54,0.00,SCT,,0.00,278.0,WeatherDisplay:10.37,2013-04-29 22:34:00,
2013-04-29 17:39:00,79.3,61.7,29.65,South,171,16.1,16.1,55,0.00,SCT,,0.00,190.0,WeatherDisplay:10.37,2013-04-29 22:39:00,
2013-04-29 17:44:00,79.1,62.1,29.65,SSE,156,12.7,12.7,56,0.00,BKN,,0.00,142.0,WeatherDisplay:10.37,2013-04-29 22:44:00,
2013-04-29 17:49:00,79.0,62.0,29.65,South,176,16.1,16.1,56,0.00,BKN,,0.00,146.0,WeatherDisplay:10.37,2013-04-29 22:49:00,
2013-04-29 17:54:00,78.9,61.9,29.65,SSE,150,11.5,11.5,56,0.00,BKN,,0.00,214.0,WeatherDisplay:10.37,2013-04-29 22:54:00,
2013-04-29 17:59:00,78.9,61.9,29.65,SSE,148,20.7,20.7,56,0.00,BKN,,0.00,243.0,WeatherDisplay:10.37,2013-04-29 22:59:00,
2013-04-29 18:04:00,78.9,62.4,29.65,SSE,161,12.7,12.7,57,0.00,SCT,,0.00,227.0,WeatherDisplay:10.37,2013-04-29 23:04:00,
2013-04-29 18:09:00,78.9,61.9,29.65,SSE,159,18.4,18.4,56,0.00,SCT,,0.00,213.0,WeatherDisplay:10.37,2013-04-29 23:09:00,
2013-04-29 18:14:00,78.9,61.9,29.65,South,180,15.0,15.0,56,0.00,SCT,,0.00,193.0,WeatherDisplay:10.37,2013-04-29 23:14:00,
2013-04-29 18:19:00,78.7,61.2,29.65,SSE,160,19.6,19.6,55,0.00,SCT,,0.00,207.0,WeatherDisplay:10.37,2013-04-29 23:19:00,
2013-04-29 18:24:00,78.4,60.9,29.65,South,186,17.3,17.3,55,0.00,SCT,,0.00,179.0,WeatherDisplay:10.37,2013-04-29 23:24:00,
2013-04-29 18:30:00,78.3,61.3,29.65,South,171,11.5,11.5,56,0.00,SCT,,0.00,200.0,WeatherDisplay:10.37,2013-04-29 23:30:00,
2013-04-29 18:35:00,78.4,61.9,29.65,South,173,11.5,11.5,57,0.00,SCT,,0.00,171.0,WeatherDisplay:10.37,2013-04-29 23:35:00,
2013-04-29 18:40:00,78.2,61.2,29.65,SSE,155,19.6,19.6,56,0.00,SCT,,0.00,179.0,WeatherDisplay:10.37,2013-04-29 23:40:00,
2013-04-29 18:45:00,78.2,61.7,29.65,SSE,161,11.5,11.5,57,0.00,SCT,,0.00,172.0,WeatherDisplay:10.37,2013-04-29 23:45:00,
2013-04-29 18:50:00,78.2,61.7,29.65,SSE,162,11.5,11.5,57,0.00,SCT,,0.00,169.0,WeatherDisplay:10.37,2013-04-29 23:50:00,
2013-04-29 18:55:00,78.3,61.8,29.65,SSE,152,11.5,11.5,57,0.00,SCT,,0.00,163.0,WeatherDisplay:10.37,2013-04-29 23:55:00,
2013-04-29 19:00:00,78.2,62.2,29.65,South,179,16.1,16.1,58,0.00,SCT,,0.00,120.0,WeatherDisplay:10.37,2013-04-30 00:00:00,
2013-04-29 19:05:00,77.9,61.9,29.65,SSE,160,11.5,11.5,58,0.00,SCT,,0.00,125.0,WeatherDisplay:10.37,2013-04-30 00:05:00,
2013-04-29 19:10:00,77.8,61.8,29.65,South,177,13.8,13.8,58,0.00,SCT,,0.00,111.0,WeatherDisplay:10.37,2013-04-30 00:10:00,
2013-04-29 19:15:00,77.7,62.2,29.65,SSE,152,7.0,7.0,59,0.00,SCT,,0.00,93.0,WeatherDisplay:10.37,2013-04-30 00:15:00,
2013-04-29 19:20:00,77.4,62.4,29.65,South,173,16.1,16.1,60,0.00,SCT,,0.00,83.0,WeatherDisplay:10.37,2013-04-30 00:20:00,
2013-04-29 19:25:00,77.0,62.5,29.65,SSE,153,13.8,13.8,61,0.00,BKN,,0.00,53.0,WeatherDisplay:10.37,2013-04-30 00:25:00,
2013-04-29 19:30:00,76.5,62.0,29.65,SSE,153,11.5,11.5,61,0.00,BKN,,0.00,39.0,WeatherDisplay:10.37,2013-04-30 00:30:00,
2013-04-29 19:35:00,76.0,62.0,29.65,SE,142,18.4,18.4,62,0.00,BKN,,0.00,30.0,WeatherDisplay:10.37,2013-04-30 00:35:00,
2013-04-29 19:40:00,75.6,62.1,29.65,SE,142,11.5,11.5,63,0.00,BKN,,0.00,25.0,WeatherDisplay:10.37,2013-04-30 00:40:00,
2013-04-29 19:45:00,75.3,62.3,29.65,SE,132,18.4,18.4,64,0.00,BKN,,0.00,19.0,WeatherDisplay:10.37,2013-04-30 00:45:00,
2013-04-29 19:50:00,74.9,62.3,29.66,SE,145,17.3,17.3,65,0.00,SCT,,0.00,14.0,WeatherDisplay:10.37,2013-04-30 00:50:00,
2013-04-29 19:55:00,74.5,62.4,29.66,SSE,165,13.8,13.8,66,0.00,CLR,,0.00,7.0,WeatherDisplay:10.37,2013-04-30 00:55:00,
2013-04-29 20:00:00,74.1,62.4,29.66,SSE,153,19.6,19.6,67,0.00,CLR,,0.00,0.0,WeatherDisplay:10.37,2013-04-30 01:00:00,
2013-04-29 20:05:00,73.7,62.1,29.65,SE,127,11.5,11.5,67,0.00,CLR,,0.00,0.0,WeatherDisplay:10.37,2013-04-30 01:05:00,
2013-04-29 20:10:00,73.4,62.2,29.66,South,169,10.0,10.0,68,0.00,CLR,,0.00,0.0,WeatherDisplay:10.37,2013-04-30 01:10:00,
2013-04-29 20:15:00,73.1,61.9,29.66,SSE,153,20.7,20.7,68,0.00,CLR,,0.00,0.0,WeatherDisplay:10.37,2013-04-30 01:15:00,
2013-04-29 20:20:00,72.9,62.1,29.67,SSE,150,9.2,9.2,69,0.00,CLR,,0.00,0.0,WeatherDisplay:10.37,2013-04-30 01:20:00,
2013-04-29 20:25:00,72.7,61.9,29.67,SE,129,12.7,12.7,69,0.00,CLR,,0.00,0.0,WeatherDisplay:10.37,2013-04-30 01:25:00,
2013-04-29 20:30:00,72.4,62.1,29.67,SSE,161,15.0,15.0,70,0.00,CLR,,0.00,0.0,WeatherDisplay:10.37,2013-04-30 01:30:00,
2013-04-29 20:35:00,72.2,61.9,29.67,SSE,153,17.3,17.3,70,0.00,CLR,,0.00,0.0,WeatherDisplay:10.37,2013-04-30 01:35:00,
2013-04-29 20:40:00,72.0,62.1,29.67,SSE,156,11.5,11.5,71,0.00,CLR,,0.00,0.0,WeatherDisplay:10.37,2013-04-30 01:40:00,
2013-04-29 20:45:00,71.7,61.8,29.66,SE,146,12.7,12.7,71,0.00,CLR,,0.00,0.0,WeatherDisplay:10.37,2013-04-30 01:45:00,
2013-04-29 20:50:00,71.6,61.7,29.66,SSE,150,19.6,19.6,71,0.00,CLR,,0.00,0.0,WeatherDisplay:10.37,2013-04-30 01:50:00,
2013-04-29 20:55:00,71.4,61.9,29.66,SE,144,20.7,20.7,72,0.00,CLR,,0.00,0.0,WeatherDisplay:10.37,2013-04-30 01:55:00,
2013-04-29 21:00:00,71.3,61.8,29.65,SE,133,19.6,19.6,72,0.00,CLR,,0.00,0.0,WeatherDisplay:10.37,2013-04-30 02:00:00,
2013-04-29 21:05:00,71.2,61.7,29.65,SE,133,11.5,11.5,72,0.00,CLR,,0.00,0.0,WeatherDisplay:10.37,2013-04-30 02:05:00,
2013-04-29 21:10:00,70.9,61.4,29.65,SE,129,18.4,18.4,72,0.00,CLR,,0.00,0.0,WeatherDisplay:10.37,2013-04-30 02:10:00,
2013-04-29 21:15:00,70.8,61.7,29.66,SE,135,13.8,13.8,73,0.00,CLR,,0.00,0.0,WeatherDisplay:10.37,2013-04-30 02:15:00,
2013-04-29 21:20:00,70.6,61.5,29.67,SE,129,18.4,18.4,73,0.00,CLR,,0.00,0.0,WeatherDisplay:10.37,2013-04-30 02:20:00,
2013-04-29 21:25:00,70.4,61.3,29.67,SE,143,16.1,16.1,73,0.00,CLR,,0.00,0.0,WeatherDisplay:10.37,2013-04-30 02:25:00,
2013-04-29 21:30:00,70.3,61.2,29.68,ESE,114,11.5,11.5,73,0.00,CLR,,0.00,0.0,WeatherDisplay:10.37,2013-04-30 02:30:00,
2013-04-29 21:35:00,70.1,61.4,29.67,SE,146,8.1,8.1,74,0.00,CLR,,0.00,0.0,WeatherDisplay:10.37,2013-04-30 02:35:00,
2013-04-29 21:40:00,69.9,61.2,29.68,SE,146,6.9,6.9,74,0.00,CLR,,0.00,0.0,WeatherDisplay:10.37,2013-04-30 02:40:00,
2013-04-29 21:45:00,69.8,61.1,29.68,SSE,153,10.4,10.4,74,0.00,CLR,,0.00,0.0,WeatherDisplay:10.37,2013-04-30 02:45:00,
2013-04-29 21:50:00,69.6,60.9,29.68,SE,141,5.0,5.0,74,0.00,CLR,,0.00,0.0,WeatherDisplay:10.37,2013-04-30 02:50:00,
2013-04-29 21:55:00,69.5,61.2,29.68,SE,136,3.5,3.5,75,0.00,CLR,,0.00,0.0,WeatherDisplay:10.37,2013-04-30 02:55:00,
2013-04-29 22:00:00,69.3,61.0,29.68,ESE,112,10.4,10.4,75,0.00,CLR,,0.00,0.0,WeatherDisplay:10.37,2013-04-30 03:00:00,
2013-04-29 22:05:00,69.2,60.9,29.68,SSE,159,5.8,5.8,75,0.00,CLR,,0.00,0.0,WeatherDisplay:10.37,2013-04-30 03:05:00,
2013-04-29 22:10:00,69.0,60.7,29.68,SSE,155,11.5,11.5,75,0.00,CLR,,0.00,0.0,WeatherDisplay:10.37,2013-04-30 03:10:00,
2013-04-29 22:15:00,68.9,61.0,29.68,ESE,120,14.0,14.0,76,0.00,CLR,,0.00,0.0,WeatherDisplay:10.37,2013-04-30 03:15:00,
2013-04-29 22:20:00,68.8,60.9,29.68,SE,144,12.7,12.7,76,0.00,CLR,,0.00,0.0,WeatherDisplay:10.37,2013-04-30 03:20:00,
2013-04-29 22:25:00,68.7,60.8,29.68,South,173,16.1,16.1,76,0.00,CLR,,0.00,0.0,WeatherDisplay:10.37,2013-04-30 03:25:00,
2013-04-29 22:30:00,68.6,60.7,29.68,SSE,158,13.8,13.8,76,0.00,CLR,,0.00,0.0,WeatherDisplay:10.37,2013-04-30 03:30:00,
2013-04-29 22:35:00,68.5,60.6,29.68,SSE,147,12.0,12.0,76,0.00,CLR,,0.00,0.0,WeatherDisplay:10.37,2013-04-30 03:35:00,
2013-04-29 22:40:00,68.5,60.6,29.68,SE,142,11.5,11.5,76,0.00,CLR,,0.00,0.0,WeatherDisplay:10.37,2013-04-30 03:40:00,
2013-04-29 22:45:00,68.4,60.5,29.68,SE,136,12.7,12.7,76,0.00,CLR,,0.00,0.0,WeatherDisplay:10.37,2013-04-30 03:45:00,
2013-04-29 22:50:00,68.3,60.4,29.68,SE,142,10.4,10.4,76,0.00,CLR,,0.00,0.0,WeatherDisplay:10.37,2013-04-30 03:50:00,
2013-04-29 22:55:00,68.3,60.4,29.68,SE,144,17.3,17.3,76,0.00,CLR,,0.00,0.0,WeatherDisplay:10.37,2013-04-30 03:55:00,
2013-04-29 23:00:00,68.2,60.3,29.68,SE,146,13.8,13.8,76,0.00,CLR,,0.00,0.0,WeatherDisplay:10.37,2013-04-30 04:00:00,
2013-04-29 23:01:00,68.2,60.3,29.68,SSE,155,10.4,10.4,76,0.00,CLR,,0.00,0.0,WeatherDisplay:10.37,2013-04-30 04:01:00,
2013-04-29 23:02:00,68.2,60.3,29.68,SSE,152,10.4,10.4,76,0.00,CLR,,0.00,0.0,WeatherDisplay:10.37,2013-04-30 04:02:00,
2013-04-29 23:07:00,68.1,60.2,29.68,SE,134,11.5,11.5,76,0.00,CLR,,0.00,0.0,WeatherDisplay:10.37,2013-04-30 04:07:00,
2013-04-29 23:12:00,68.0,60.2,29.68,SE,136,9.2,9.2,76,0.00,CLR,,0.00,0.0,WeatherDisplay:10.37,2013-04-30 04:12:00,
2013-04-29 23:17:00,67.9,60.1,29.68,SSE,155,11.5,11.5,76,0.00,CLR,,0.00,0.0,WeatherDisplay:10.37,2013-04-30 04:17:00,
2013-04-29 23:22:00,67.9,60.1,29.68,SE,133,11.5,11.5,76,0.00,CLR,,0.00,0.0,WeatherDisplay:10.37,2013-04-30 04:22:00,
2013-04-29 23:27:00,67.8,60.3,29.68,SSE,157,13.8,13.8,77,0.00,CLR,,0.00,0.0,WeatherDisplay:10.37,2013-04-30 04:27:00,
2013-04-29 23:32:00,67.7,60.2,29.68,SSE,147,11.5,11.5,77,0.00,CLR,,0.00,0.0,WeatherDisplay:10.37,2013-04-30 04:32:00,
2013-04-29 23:37:00,67.6,60.1,29.68,SE,146,5.8,5.8,77,0.00,CLR,,0.00,0.0,WeatherDisplay:10.37,2013-04-30 04:37:00,
2013-04-29 23:42:00,67.5,60.4,29.68,SE,132,3.5,4.2,78,0.00,CLR,,0.00,0.0,WeatherDisplay:10.37,2013-04-30 04:42:00,
2013-04-29 23:47:00,67.4,60.3,29.67,SSE,167,3.5,4.0,78,0.00,CLR,,0.00,0.0,WeatherDisplay:10.37,2013-04-30 04:47:00,
2013-04-29 23:52:00,67.2,60.5,29.67,SSE,155,10.4,10.4,79,0.00,CLR,,0.00,0.0,WeatherDisplay:10.37,2013-04-30 04:52:00,
2013-04-29 23:57:00,67.1,60.4,29.67,SSE,159,15.0,15.0,79,0.00,CLR,,0.00,0.0,WeatherDisplay:10.37,2013-04-30 04:57:00,